Location: Buckeye Ditch
(40.9104°N, 122.9517°W)
Time: 17:20:35
(UTC+00:00)

SR - Pass Details

Date: 22 May 2025
Orbit: 570 x 855 km, 66.7° (Epoch: 13 June)

Event Time Altitude Azimuth Distance (km) Brightness Sun altitude
Rises 06:12:36 0° 161° (SSE) 3,358 - -23.0°
Reaches altitude 10° 06:15:55 10° 141° (SE) 2,458 - -23.3°
Maximum altitude 06:19:21 16° 104° (ESE) 2,059 - -23.6°
Exits shadow 06:21:20 14° 80° (E) 2,215 ? -23.8°
Drops below altitude 10° 06:22:48 10° 67° (ENE) 2,489 ? -23.9°
Sets 06:26:11 0° 47° (NE) 3,421 ? -24.2°
